星链-31044 (STARLINK-31044 )

导读 | 星芒AI

STARLINK-31044 是 SpaceX Starlink 卫星互联网项目中的一个组成部分,属于其低轨卫星星座的一部分,旨在为全球用户提供高速互联网服务。该卫星于2023年发射,运行在约550公里高的近地轨道,采用先进推进系统和激光通信技术,以提升网络性能和减少延迟。Starlink 项目致力于实现全球覆盖,特别是在偏远和网络基础设施薄弱地区。

基本信息
目录编号:
58589
目录名称:
STARLINK-31044
国际标识:
2023-200A
轨道中心:
EARTH
卫星名称:
星链-31044
卫星全名:
星链-31044 (STARLINK-31044 )
卫星状态:
在轨 (已飞行682 天)
发射日期:
2023-12-19 UTC
国别 :
美国 (US)
星等 :
--
轨道信息
数据来源 国际轨道数据 AOE轨道数据
星历时间 2025-10-30T23:02:25+0800
22小时前
查看轨道信息
2025-10-30T10:00:00+0800
1天前
查看轨道信息
半长轴 6937.218km 6937.212km
偏心率 0.0001196 0.0001004
轨道倾角 43.004° 43.005°
近地点辐角 264.522° 267.032°
升交点赤经 156.604° 159.560°
平近点角 95.549° 30.641°
近地点 558.253km 558.38km
远地点 559.913km 559.774km
周期 95.838分钟 95.838分钟
每日圈数 15.025358 15.025377
详细信息
固有亮度:
5
最大亮度:
0.3
卫星平台:
Starlink v2.0 mini
覆盖范围:
全球
运营商:
太空探索技术公司
运营商所在国:
美国
制造商(研发单位):
太空探索技术公司
制造商所在国:
美国
使用方式:
暂无
卫星简介
星链(Starlink)计划是由太空探索技术公司(SpaceX)提出的一个巨型低轨卫星互联网星座项目,计划在2019年至2024年间在太空搭建由约1.2万颗卫星组成的“星链”网络,其中1584颗将部署在地球上空550千米处的近地轨道,并从2020年开始工作。该卫星仍在工作。
2D轨道图
3D轨道图
轨道高度分析图
轨道倾角分析图
轨道综合分析图
查看轨道综合分析图